Time,TemperatureF,DewpointF,PressureIn,WindDirection,WindDirectionDegrees,WindSpeedMPH,WindSpeedGustMPH,Humidity,HourlyPrecipIn,Conditions,Clouds,dailyrainin,SolarRadiationWatts/m^2,SoftwareType,DateUTC
2013-07-15 00:01:00,77.0,74.0,30.21,East,100,0.0,1.0,89,0.00,,,0.00,0.000000,,2013-07-15 04:01:00,
2013-07-15 00:11:00,77.0,74.0,30.21,East,100,0.0,1.0,89,0.00,,,0.00,0.000000,,2013-07-15 04:11:00,
2013-07-15 00:22:00,77.0,74.0,30.21,East,99,0.0,1.0,89,0.00,,,0.00,0.000000,,2013-07-15 04:22:00,
2013-07-15 00:32:00,77.0,74.0,30.22,East,99,3.0,3.0,90,0.00,,,0.00,0.000000,,2013-07-15 04:32:00,
2013-07-15 00:42:00,77.0,74.0,30.22,East,99,3.0,3.0,90,0.00,,,0.00,0.000000,,2013-07-15 04:42:00,
2013-07-15 00:54:00,77.0,74.0,30.22,East,99,0.0,2.0,91,0.00,,,0.00,0.000000,,2013-07-15 04:54:00,
2013-07-15 01:02:00,76.0,73.0,30.21,East,100,1.0,4.0,91,0.00,,,0.00,0.000000,,2013-07-15 05:02:00,
2013-07-15 01:11:00,76.0,73.0,30.21,East,100,1.0,4.0,91,0.00,,,0.00,0.000000,,2013-07-15 05:11:00,
2013-07-15 01:22:00,76.0,74.0,30.22,East,99,0.0,1.0,92,0.00,,,0.00,0.000000,,2013-07-15 05:22:00,
2013-07-15 01:32:00,76.0,74.0,30.21,East,99,0.0,4.0,93,0.00,,,0.00,0.000000,,2013-07-15 05:32:00,
2013-07-15 01:43:00,76.0,74.0,30.21,East,99,0.0,4.0,93,0.00,,,0.00,0.000000,,2013-07-15 05:43:00,
2013-07-15 01:53:00,75.0,73.0,30.22,East,98,0.0,1.0,93,0.00,,,0.00,0.000000,,2013-07-15 05:53:00,
2013-07-15 02:02:00,75.0,73.0,30.22,East,98,0.0,3.0,93,0.00,,,0.00,0.000000,,2013-07-15 06:02:00,
2013-07-15 02:12:00,75.0,73.0,30.22,East,98,0.0,3.0,93,0.00,,,0.00,0.000000,,2013-07-15 06:12:00,
2013-07-15 02:22:00,75.0,73.0,30.22,East,98,0.0,1.0,94,0.00,,,0.00,0.000000,,2013-07-15 06:22:00,
2013-07-15 02:32:00,75.0,73.0,30.22,East,98,0.0,5.0,94,0.00,,,0.00,0.000000,,2013-07-15 06:32:00,
2013-07-15 02:42:00,75.0,73.0,30.22,East,98,0.0,5.0,94,0.00,,,0.00,0.000000,,2013-07-15 06:42:00,
2013-07-15 02:53:00,75.0,73.0,30.22,East,98,0.0,2.0,94,0.00,,,0.00,0.000000,,2013-07-15 06:53:00,
2013-07-15 03:01:00,74.0,72.0,30.22,East,98,0.0,0.0,94,0.00,,,0.00,0.000000,,2013-07-15 07:01:00,
2013-07-15 03:11:00,74.0,72.0,30.22,East,98,0.0,0.0,94,0.00,,,0.00,0.000000,,2013-07-15 07:11:00,
2013-07-15 03:22:00,74.0,72.0,30.22,East,98,0.0,1.0,94,0.00,,,0.00,0.000000,,2013-07-15 07:22:00,
2013-07-15 03:33:00,74.0,72.0,30.22,East,98,0.0,0.0,94,0.00,,,0.00,0.000000,,2013-07-15 07:33:00,
2013-07-15 03:44:00,74.0,72.0,30.22,East,98,0.0,0.0,94,0.00,,,0.00,0.000000,,2013-07-15 07:44:00,
2013-07-15 03:53:00,74.0,72.0,30.22,East,98,0.0,0.0,95,0.00,,,0.00,0.000000,,2013-07-15 07:53:00,
2013-07-15 04:01:00,74.0,72.0,30.22,East,98,0.0,0.0,95,0.00,,,0.00,0.000000,,2013-07-15 08:01:00,
2013-07-15 04:11:00,74.0,72.0,30.22,East,98,0.0,0.0,95,0.00,,,0.00,0.000000,,2013-07-15 08:11:00,
2013-07-15 04:22:00,74.0,72.0,30.22,East,98,0.0,1.0,94,0.00,,,0.00,0.000000,,2013-07-15 08:22:00,
2013-07-15 04:32:00,73.0,71.0,30.23,East,98,0.0,0.0,94,0.00,,,0.00,0.000000,,2013-07-15 08:32:00,
2013-07-15 04:43:00,73.0,71.0,30.23,East,98,0.0,0.0,94,0.00,,,0.00,0.000000,,2013-07-15 08:43:00,
2013-07-15 04:53:00,73.0,71.0,30.23,East,98,0.0,0.0,94,0.00,,,0.00,0.000000,,2013-07-15 08:53:00,
2013-07-15 05:02:00,73.0,71.0,30.23,East,98,0.0,0.0,95,0.00,,,0.00,0.000000,,2013-07-15 09:02:00,
2013-07-15 05:11:00,73.0,71.0,30.23,East,98,0.0,0.0,95,0.00,,,0.00,0.000000,,2013-07-15 09:11:00,
2013-07-15 05:22:00,73.0,71.0,30.23,East,98,0.0,0.0,95,0.00,,,0.00,0.000000,,2013-07-15 09:22:00,
2013-07-15 05:32:00,72.0,70.0,30.23,East,98,0.0,0.0,95,0.00,,,0.00,0.000000,,2013-07-15 09:32:00,
2013-07-15 05:43:00,72.0,70.0,30.23,East,98,0.0,0.0,95,0.00,,,0.00,0.000000,,2013-07-15 09:43:00,
2013-07-15 05:52:00,72.0,70.0,30.24,East,98,0.0,0.0,95,0.00,,,0.00,0.000000,,2013-07-15 09:52:00,
2013-07-15 06:02:00,72.0,70.0,30.24,East,98,0.0,0.0,95,0.00,,,0.00,0.000000,,2013-07-15 10:02:00,
2013-07-15 06:11:00,72.0,70.0,30.24,East,98,0.0,0.0,95,0.00,,,0.00,0.000000,,2013-07-15 10:11:00,
2013-07-15 06:22:00,72.0,71.0,30.24,East,98,0.0,0.0,96,0.00,,,0.00,0.000000,,2013-07-15 10:22:00,
2013-07-15 06:32:00,72.0,71.0,30.25,East,98,0.0,0.0,96,0.00,,,0.00,0.000000,,2013-07-15 10:32:00,
2013-07-15 06:43:00,72.0,71.0,30.25,East,98,0.0,0.0,96,0.00,,,0.00,0.000000,,2013-07-15 10:43:00,
2013-07-15 06:53:00,71.0,69.0,30.25,East,98,0.0,0.0,95,0.00,,,0.00,7.000000,,2013-07-15 10:53:00,
2013-07-15 07:02:00,71.0,69.0,30.25,East,98,0.0,0.0,95,0.00,,,0.00,14.000000,,2013-07-15 11:02:00,
2013-07-15 07:11:00,71.0,69.0,30.25,East,98,0.0,0.0,95,0.00,,,0.00,14.000000,,2013-07-15 11:11:00,
2013-07-15 07:22:00,71.0,70.0,30.25,East,98,0.0,0.0,96,0.00,,,0.00,18.000000,,2013-07-15 11:22:00,
2013-07-15 07:32:00,71.0,70.0,30.26,East,98,0.0,0.0,96,0.00,,,0.00,47.000000,,2013-07-15 11:32:00,
2013-07-15 07:42:00,71.0,70.0,30.26,East,98,0.0,0.0,96,0.00,,,0.00,47.000000,,2013-07-15 11:42:00,
2013-07-15 07:52:00,72.0,71.0,30.26,East,98,0.0,0.0,97,0.00,,,0.00,83.000000,,2013-07-15 11:52:00,
2013-07-15 08:01:00,73.0,72.0,30.27,East,98,0.0,0.0,98,0.00,,,0.00,90.000000,,2013-07-15 12:01:00,
2013-07-15 08:11:00,73.0,72.0,30.27,East,98,0.0,0.0,98,0.00,,,0.00,90.000000,,2013-07-15 12:11:00,
2013-07-15 08:22:00,75.0,74.0,30.27,East,98,0.0,0.0,97,0.00,,,0.00,104.000000,,2013-07-15 12:22:00,
2013-07-15 08:32:00,76.0,75.0,30.27,East,98,0.0,0.0,96,0.00,,,0.00,98.000000,,2013-07-15 12:32:00,
2013-07-15 08:42:00,76.0,75.0,30.27,East,98,0.0,0.0,96,0.00,,,0.00,98.000000,,2013-07-15 12:42:00,
2013-07-15 08:53:00,77.0,75.0,30.27,East,98,0.0,0.0,94,0.00,,,0.00,195.000000,,2013-07-15 12:53:00,
2013-07-15 09:01:00,78.0,75.0,30.28,East,98,0.0,1.0,91,0.00,,,0.00,313.000000,,2013-07-15 13:01:00,
2013-07-15 09:11:00,78.0,75.0,30.28,East,98,0.0,1.0,91,0.00,,,0.00,313.000000,,2013-07-15 13:11:00,
2013-07-15 09:22:00,79.0,74.0,30.28,South,178,6.0,11.0,85,0.00,,,0.00,255.000000,,2013-07-15 13:22:00,
2013-07-15 09:33:00,80.0,75.0,30.29,SSW,204,5.0,12.0,84,0.00,,,0.00,348.000000,,2013-07-15 13:33:00,
2013-07-15 09:43:00,80.0,75.0,30.29,SSW,204,5.0,12.0,84,0.00,,,0.00,348.000000,,2013-07-15 13:43:00,
2013-07-15 09:53:00,80.0,75.0,30.28,SSW,212,0.0,9.0,84,0.00,,,0.00,473.000000,,2013-07-15 13:53:00,
2013-07-15 10:02:00,80.0,75.0,30.28,SSW,212,0.0,9.0,84,0.00,,,0.00,473.000000,,2013-07-15 14:02:00,
2013-07-15 10:11:00,81.0,75.0,30.29,SSW,212,6.0,8.0,82,0.00,,,0.00,517.000000,,2013-07-15 14:11:00,
2013-07-15 10:33:00,82.0,76.0,30.28,SSW,211,4.0,9.0,81,0.00,,,0.00,554.000000,,2013-07-15 14:33:00,
2013-07-15 10:42:00,83.0,76.0,30.29,SSW,208,5.0,9.0,79,0.00,,,0.00,552.000000,,2013-07-15 14:42:00,
2013-07-15 11:18:00,84.0,76.0,30.28,South,184,7.0,12.0,78,0.00,,,0.00,476.000000,,2013-07-15 15:18:00,
2013-07-15 11:28:00,84.0,76.0,30.29,SSW,196,6.0,12.0,77,0.00,,,0.00,494.000000,,2013-07-15 15:28:00,
2013-07-15 11:39:00,85.0,77.0,30.29,SSW,198,8.0,12.0,78,0.00,,,0.00,547.000000,,2013-07-15 15:39:00,
2013-07-15 11:53:00,84.0,76.0,30.29,SW,222,6.0,11.0,77,0.00,,,0.00,596.000000,,2013-07-15 15:53:00,
2013-07-15 12:08:00,84.0,76.0,30.29,SW,222,6.0,11.0,77,0.00,,,0.00,596.000000,,2013-07-15 16:08:00,
2013-07-15 12:15:00,85.0,76.0,30.29,SW,235,8.0,11.0,75,0.00,,,0.00,705.000000,,2013-07-15 16:15:00,
2013-07-15 12:24:00,85.0,78.0,30.29,SSW,205,7.0,14.0,79,0.00,,,0.00,851.000000,,2013-07-15 16:24:00,
2013-07-15 12:33:00,85.0,78.0,30.29,SSW,205,7.0,14.0,79,0.00,,,0.00,851.000000,,2013-07-15 16:33:00,
2013-07-15 12:46:00,85.0,77.0,30.29,SSW,210,5.0,10.0,78,0.00,,,0.00,158.000000,,2013-07-15 16:46:00,
2013-07-15 12:53:00,84.0,77.0,30.29,SW,233,6.0,12.0,80,0.00,,,0.00,712.000000,,2013-07-15 16:53:00,
2013-07-15 13:06:00,84.0,77.0,30.29,SW,233,6.0,12.0,80,0.00,,,0.00,712.000000,,2013-07-15 17:06:00,
2013-07-15 13:13:00,85.0,77.0,30.29,SW,234,6.0,10.0,78,0.00,,,0.00,784.000000,,2013-07-15 17:13:00,
2013-07-15 13:23:00,86.0,77.0,30.29,WSW,245,9.0,13.0,75,0.00,,,0.00,780.000000,,2013-07-15 17:23:00,
2013-07-15 13:36:00,86.0,77.0,30.29,WSW,245,9.0,13.0,75,0.00,,,0.00,780.000000,,2013-07-15 17:36:00,
2013-07-15 13:49:00,86.0,77.0,30.29,WSW,245,9.0,13.0,75,0.00,,,0.00,780.000000,,2013-07-15 17:49:00,
2013-07-15 14:00:00,87.0,77.0,30.29,SW,232,5.0,10.0,72,0.00,,,0.00,1020.000000,,2013-07-15 18:00:00,
2013-07-15 14:17:00,87.0,77.0,30.29,SW,232,5.0,10.0,72,0.00,,,0.00,1020.000000,,2013-07-15 18:17:00,
2013-07-15 14:28:00,87.0,77.0,30.28,SW,222,6.0,11.0,73,0.00,,,0.00,1014.000000,,2013-07-15 18:28:00,
2013-07-15 14:45:00,88.0,77.0,30.27,South,182,9.0,10.0,69,0.00,,,0.00,1023.000000,,2013-07-15 18:45:00,
2013-07-15 14:59:00,89.0,77.0,30.27,South,183,4.0,7.0,68,0.00,,,0.00,1027.000000,,2013-07-15 18:59:00,
2013-07-15 15:12:00,89.0,77.0,30.27,SSW,211,7.0,11.0,67,0.00,,,0.00,956.000000,,2013-07-15 19:12:00,
2013-07-15 15:36:00,89.0,77.0,30.27,SSW,211,6.0,10.0,68,0.00,,,0.00,983.000000,,2013-07-15 19:36:00,
2013-07-15 15:47:00,89.0,78.0,30.27,SSW,213,6.0,11.0,70,0.00,,,0.00,956.000000,,2013-07-15 19:47:00,
2013-07-15 15:56:00,88.0,77.0,30.27,South,180,9.0,15.0,70,0.00,,,0.00,911.000000,,2013-07-15 19:56:00,
2013-07-15 16:07:00,88.0,77.0,30.27,South,180,9.0,15.0,70,0.00,,,0.00,911.000000,,2013-07-15 20:07:00,
2013-07-15 16:37:00,89.0,77.0,30.26,SSW,210,8.0,10.0,68,0.00,,,0.00,835.000000,,2013-07-15 20:37:00,
2013-07-15 16:43:00,89.0,77.0,30.26,SSW,210,6.0,9.0,67,0.00,,,0.00,860.000000,,2013-07-15 20:43:00,
2013-07-15 17:03:00,90.0,78.0,30.25,South,187,6.0,11.0,67,0.00,,,0.00,766.000000,,2013-07-15 21:03:00,
2013-07-15 17:12:00,90.0,78.0,30.25,SSW,193,7.0,12.0,68,0.00,,,0.00,731.000000,,2013-07-15 21:12:00,
2013-07-15 17:23:00,90.0,78.0,30.25,SSW,193,7.0,12.0,68,0.00,,,0.00,731.000000,,2013-07-15 21:23:00,
2013-07-15 17:38:00,90.0,77.0,30.25,South,182,5.0,10.0,65,0.00,,,0.00,691.000000,,2013-07-15 21:38:00,
2013-07-15 17:48:00,90.0,77.0,30.24,South,179,4.0,8.0,65,0.00,,,0.00,643.000000,,2013-07-15 21:48:00,
2013-07-15 18:03:00,90.0,77.0,30.24,South,179,5.0,7.0,65,0.00,,,0.00,610.000000,,2013-07-15 22:03:00,
2013-07-15 18:34:00,90.0,76.0,30.24,South,175,5.0,11.0,64,0.00,,,0.00,524.000000,,2013-07-15 22:34:00,
2013-07-15 18:44:00,90.0,77.0,30.24,South,182,6.0,11.0,65,0.00,,,0.00,478.000000,,2013-07-15 22:44:00,
2013-07-15 18:54:00,90.0,77.0,30.24,South,182,6.0,11.0,65,0.00,,,0.00,478.000000,,2013-07-15 22:54:00,
2013-07-15 19:06:00,90.0,77.0,30.24,South,182,6.0,11.0,65,0.00,,,0.00,478.000000,,2013-07-15 23:06:00,
2013-07-15 19:13:00,90.0,77.0,30.24,South,182,6.0,11.0,65,0.00,,,0.00,478.000000,,2013-07-15 23:13:00,
2013-07-15 19:30:00,88.0,76.0,30.23,South,176,4.0,9.0,68,0.00,,,0.00,339.000000,,2013-07-15 23:30:00,
2013-07-15 19:40:00,88.0,76.0,30.23,South,176,5.0,6.0,68,0.00,,,0.00,292.000000,,2013-07-15 23:40:00,
2013-07-15 19:47:00,88.0,77.0,30.23,South,176,4.0,6.0,69,0.00,,,0.00,193.000000,,2013-07-15 23:47:00,
2013-07-15 19:50:00,88.0,76.0,30.23,South,176,5.0,6.0,68,0.00,,,0.00,292.000000,,2013-07-15 23:50:00,
2013-07-15 20:03:00,88.0,77.0,30.23,South,176,4.0,6.0,69,0.00,,,0.00,193.000000,,2013-07-16 00:03:00,
2013-07-15 20:16:00,88.0,77.0,30.23,South,176,4.0,6.0,69,0.00,,,0.00,193.000000,,2013-07-16 00:16:00,
2013-07-15 20:33:00,88.0,77.0,30.23,South,176,4.0,6.0,69,0.00,,,0.00,193.000000,,2013-07-16 00:33:00,
2013-07-15 20:53:00,87.0,77.0,30.23,South,176,2.0,3.0,73,0.00,,,0.00,49.000000,,2013-07-16 00:53:00,
2013-07-15 21:09:00,87.0,77.0,30.23,South,176,2.0,3.0,73,0.00,,,0.00,49.000000,,2013-07-16 01:09:00,
2013-07-15 21:27:00,84.0,75.0,30.23,South,176,0.0,0.0,75,0.00,,,0.00,7.000000,,2013-07-16 01:27:00,
2013-07-15 21:49:00,83.0,75.0,30.23,South,176,0.0,0.0,77,0.00,,,0.00,0.000000,,2013-07-16 01:49:00,
2013-07-15 22:02:00,82.0,75.0,30.24,South,176,0.0,0.0,79,0.00,,,0.00,0.000000,,2013-07-16 02:02:00,
2013-07-15 22:11:00,82.0,75.0,30.24,South,176,0.0,0.0,79,0.00,,,0.00,0.000000,,2013-07-16 02:11:00,
2013-07-15 22:35:00,80.0,74.0,30.25,South,176,0.0,0.0,82,0.00,,,0.00,0.000000,,2013-07-16 02:35:00,
2013-07-15 22:54:00,78.0,73.0,30.27,South,176,0.0,0.0,85,0.00,,,0.00,0.000000,,2013-07-16 02:54:00,
2013-07-15 23:08:00,78.0,73.0,30.27,South,176,0.0,0.0,85,0.00,,,0.00,0.000000,,2013-07-16 03:08:00,
2013-07-15 23:17:00,78.0,73.0,30.27,South,176,0.0,0.0,85,0.00,,,0.00,0.000000,,2013-07-16 03:17:00,
2013-07-15 23:29:00,78.0,73.0,30.27,South,176,0.0,0.0,85,0.00,,,0.00,0.000000,,2013-07-16 03:29:00,
2013-07-15 23:58:00,76.0,73.0,30.28,South,176,0.0,0.0,89,0.00,,,0.00,0.000000,,2013-07-16 03:58:00,